Date String (YYYY-MM-DD hh:mm:ss) UTC,Instrument flags,Ambient pressure (hPa),Sample flow (lpm),Bypass flow (lpm),Sample temperature (°C),Ambient temperature (°C),ASC tube jacket temperature (°C),LED temperature (°C),Box temperature (°C),Sample RH (%),Span deviation,Mass concentration (μg/m³),Mass concentration (μg/m³),Mass concentration (μg/m³)
DateTimeUTC,F1_M11,P_M11,Q1_M11,Q2_M11,T1_M11,T2_M11,T3_M11,T4_M11,T5_M11,U1_M11,ZSPAN_M11,X2_M11,X0_M11,X1_M11
2022-05-02 15:00:00,,0824.1,5.01,0.00,24.5,23.7,00.0,33.5,26.3,20.1,0000.0,0000.76,0001.03,0000.69
2022-05-02 15:01:00,,0824.2,5.01,0.00,24.5,23.6,00.0,33.5,26.3,20.1,0000.0,0000.80,0001.17,0000.71
2022-05-02 15:02:00,,0824.2,4.99,0.00,24.5,23.6,00.0,33.5,26.3,20.2,0000.0,0000.83,0001.27,0000.73
2022-05-02 15:03:00,,0824.2,5.01,0.00,24.5,23.7,00.0,33.5,26.3,20.2,0000.0,0000.83,0001.38,0000.73
2022-05-02 15:04:00,,0824.2,5.01,0.00,24.5,23.6,00.0,33.5,26.3,20.2,0000.0,0000.83,0001.41,0000.72
2022-05-02 15:05:00,,0824.2,5.00,0.00,24.5,23.6,00.0,33.5,26.3,20.2,0000.0,0000.80,0001.36,0000.70
2022-05-02 15:06:00,,0824.2,5.00,0.00,24.4,23.6,00.0,33.5,26.3,20.2,0000.0,0000.81,0001.39,0000.69
2022-05-02 15:07:00,,0824.3,5.00,0.00,24.4,23.6,00.0,33.5,26.2,20.2,0000.0,0000.83,0001.46,0000.69
2022-05-02 15:08:00,,0824.3,5.00,0.00,24.4,23.5,00.0,33.5,26.2,20.3,0000.0,0000.81,0001.43,0000.66
2022-05-02 15:09:00,,0824.3,5.01,0.00,24.4,23.5,00.0,33.5,26.2,20.3,0000.0,0000.80,0001.42,0000.64
2022-05-02 15:10:00,,0824.3,5.01,0.00,24.4,23.5,00.0,33.5,26.2,20.4,0000.0,0000.78,0001.39,0000.63
2022-05-02 15:11:00,,0824.3,4.99,0.00,24.4,23.6,00.0,33.4,26.2,20.4,0000.0,0000.75,0001.36,0000.61
2022-05-02 15:12:00,,0824.3,5.00,0.00,24.4,23.6,00.0,33.4,26.2,20.5,0000.0,0000.70,0001.21,0000.56
2022-05-02 15:13:00,,0824.3,4.99,0.00,24.4,23.6,00.0,33.4,26.2,20.5,0000.0,0000.68,0001.65,0000.55
2022-05-02 15:14:00,,0824.3,5.00,0.00,24.4,23.6,00.0,33.4,26.2,20.5,0000.0,0000.71,0001.92,0000.58
2022-05-02 15:15:00,,0824.3,5.00,0.00,24.4,23.5,00.0,33.4,26.2,20.5,0000.0,0000.78,0001.99,0000.67
2022-05-02 15:16:00,,0824.3,5.01,0.00,24.4,23.5,00.0,33.4,26.2,20.5,0000.0,0000.90,0002.15,0000.78
2022-05-02 15:17:00,,0824.4,5.00,0.00,24.4,23.5,00.0,33.4,26.2,20.6,0000.0,0001.05,0002.31,0000.94
2022-05-02 15:18:00,,0824.4,5.00,0.00,24.4,23.5,00.0,33.4,26.2,20.6,0000.0,0001.19,0002.49,0001.08
2022-05-02 15:19:00,,0824.3,5.00,0.00,24.4,23.5,00.0,33.4,26.2,20.6,0000.0,0001.35,0002.68,0001.22
2022-05-02 15:20:00,,0824.3,5.02,0.00,24.4,23.5,00.0,33.4,26.2,20.6,0000.0,0001.48,0002.82,0001.35
2022-05-02 15:21:00,,0824.4,4.99,0.00,24.4,23.5,00.0,33.4,26.2,20.6,0000.0,0001.63,0002.99,0001.49
2022-05-02 15:22:00,,0824.4,5.00,0.00,24.4,23.5,00.0,33.4,26.2,20.7,0000.0,0001.79,0003.17,0001.65
2022-05-02 15:23:00,,0824.3,4.99,0.00,24.4,23.5,00.0,33.4,26.2,20.8,0000.0,0002.01,0003.44,0001.85
2022-05-02 15:24:00,,0824.3,5.02,0.00,24.4,23.5,00.0,33.4,26.2,20.8,0000.0,0002.21,0003.39,0002.03
2022-05-02 15:25:00,,0824.4,5.00,0.00,24.4,23.5,00.0,33.4,26.2,20.7,0000.0,0002.31,0002.93,0002.14
2022-05-02 15:26:00,,0824.3,5.00,0.00,24.4,23.5,00.0,33.3,26.2,20.6,0000.0,0002.34,0002.93,0002.18
2022-05-02 15:27:00,,0824.4,4.99,0.00,24.4,23.5,00.0,33.3,26.2,20.5,0000.0,0002.30,0002.85,0002.15
2022-05-02 15:28:00,,0824.4,5.00,0.00,24.3,23.5,00.0,33.3,26.1,20.4,0000.0,0002.27,0002.81,0002.12
2022-05-02 15:29:00,,0824.4,5.01,0.00,24.3,23.4,00.0,33.3,26.1,20.4,0000.0,0002.22,0002.71,0002.09
2022-05-02 15:30:00,,0824.4,4.99,0.00,24.3,23.5,00.0,33.3,26.2,20.3,0000.0,0002.18,0003.84,0002.08
2022-05-02 15:31:00,,0824.4,4.99,0.00,24.3,23.4,00.0,33.3,26.1,20.3,0000.0,0002.14,0003.88,0002.06
2022-05-02 15:32:00,,0824.4,4.99,0.00,24.3,23.4,00.0,33.3,26.1,20.2,0000.0,0002.15,0004.05,0002.06
2022-05-02 15:33:00,,0824.4,5.01,0.00,24.3,23.5,00.0,33.3,26.1,20.2,0000.0,0002.20,0004.14,0002.10
2022-05-02 15:34:00,,0824.5,5.01,0.00,24.3,23.5,00.0,33.3,26.2,20.2,0000.0,0002.18,0004.11,0002.08
2022-05-02 15:35:00,,0824.5,5.00,0.00,24.3,23.5,00.0,33.3,26.2,20.3,0000.0,0002.14,0004.07,0002.04
2022-05-02 15:36:00,,0824.5,4.99,0.00,24.3,23.5,00.0,33.3,26.2,20.4,0000.0,0002.16,0004.18,0002.02
2022-05-02 15:37:00,,0824.4,5.01,0.00,24.3,23.5,00.0,33.3,26.2,20.4,0000.0,0002.14,0004.21,0001.98
2022-05-02 15:38:00,,0824.5,5.00,0.00,24.3,23.5,00.0,33.3,26.2,20.4,0000.0,0002.05,0004.12,0001.90
2022-05-02 15:39:00,,0824.5,5.00,0.00,24.3,23.5,00.0,33.3,26.2,20.5,0000.0,0001.94,0004.00,0001.79
2022-05-02 15:40:00,,0824.5,5.00,0.00,24.3,23.5,00.0,33.3,26.1,20.5,0000.0,0001.79,0003.82,0001.64
2022-05-02 15:41:00,,0824.6,4.99,0.00,24.3,23.5,00.0,33.3,26.2,20.5,0000.0,0001.65,0002.65,0001.49
2022-05-02 15:42:00,,0824.5,5.00,0.00,24.3,23.5,00.0,33.3,26.1,20.6,0000.0,0001.59,0002.35,0001.42
2022-05-02 15:43:00,,0824.5,5.01,0.00,24.3,23.5,00.0,33.3,26.1,20.6,0000.0,0001.53,0002.10,0001.37
2022-05-02 15:44:00,,0824.4,5.01,0.00,24.3,23.5,00.0,33.3,26.2,20.7,0000.0,0001.38,0001.89,0001.25
2022-05-02 15:45:00,,0824.5,5.00,0.00,24.3,23.5,00.0,33.3,26.2,20.6,0000.0,0001.18,0001.62,0001.06
2022-05-02 15:46:00,,0824.4,4.99,0.00,24.3,23.5,00.0,33.3,26.2,20.6,0000.0,0000.99,0001.39,0000.89
2022-05-02 15:47:00,,0824.4,4.99,0.00,24.3,23.5,00.0,33.3,26.1,20.6,0000.0,0000.81,0001.11,0000.75
2022-05-02 15:48:00,,0824.4,5.00,0.00,24.3,23.4,00.0,33.3,26.1,20.5,0000.0,0000.68,0000.89,0000.64
2022-05-02 15:49:00,,0824.4,5.01,0.00,24.3,23.4,00.0,33.3,26.1,20.5,0000.0,0000.66,0000.87,0000.61
2022-05-02 15:50:00,,0824.4,4.99,0.00,24.3,23.4,00.0,33.3,26.1,20.5,0000.0,0000.67,0000.89,0000.61
2022-05-02 15:51:00,,0824.6,5.00,0.00,24.3,23.5,00.0,33.3,26.1,20.4,0000.0,0000.67,0000.90,0000.62
2022-05-02 15:52:00,,0824.5,5.00,0.00,24.3,23.5,00.0,33.3,26.1,20.5,0000.0,0000.65,0000.86,0000.59
2022-05-02 15:53:00,,0824.5,5.02,0.00,24.3,23.5,00.0,33.3,26.1,20.5,0000.0,0000.54,0000.73,0000.50
2022-05-02 15:54:00,,0824.5,4.99,0.00,24.3,23.5,00.0,33.3,26.2,20.5,0000.0,0000.40,0000.57,0000.35
2022-05-02 15:55:00,,0824.4,5.01,0.00,24.3,23.5,00.0,33.3,26.1,20.4,0000.0,0000.33,0000.50,0000.28
2022-05-02 15:56:00,,0824.5,5.00,0.00,24.3,23.4,00.0,33.3,26.1,20.3,0000.0,0000.39,0000.55,0000.34
2022-05-02 15:57:00,,0824.4,5.00,0.00,24.3,23.4,00.0,33.3,26.1,20.2,0000.0,0000.47,0000.65,0000.42
2022-05-02 15:58:00,,0824.4,5.00,0.00,24.3,23.4,00.0,33.3,26.1,20.2,0000.0,0000.56,0000.75,0000.51
2022-05-02 15:59:00,,0824.5,5.01,0.00,24.3,23.4,00.0,33.3,26.1,20.1,0000.0,0000.60,0000.82,0000.56
